Date String (YYYY-MM-DD hh:mm:ss) UTC,Instrument flags,Ambient pressure (hPa),Sample flow (lpm),Bypass flow (lpm),Sample temperature (°C),Ambient temperature (°C),ASC tube jacket temperature (°C),LED temperature (°C),Box temperature (°C),Sample RH (%),Span deviation,Mass concentration (μg/m³),Mass concentration (μg/m³),Mass concentration (μg/m³)
DateTimeUTC,F1_M11,P_M11,Q1_M11,Q2_M11,T1_M11,T2_M11,T3_M11,T4_M11,T5_M11,U1_M11,ZSPAN_M11,X0_M11,X2_M11,X1_M11
2023-02-01 23:00:00,,0825.7,5.01,0.00,27.5,26.2,00.0,36.3,29.3,07.5,0000.0,0023.69,0011.94,0010.51
2023-02-01 23:01:00,,0825.7,5.00,0.00,27.5,26.2,00.0,36.3,29.3,07.3,0000.2,0023.34,0012.10,0010.65
2023-02-01 23:02:00,,0825.7,5.01,0.00,27.5,26.2,00.0,36.3,29.3,07.1,0001.0,0022.95,0012.11,0010.70
2023-02-01 23:03:00,,0825.9,4.99,0.00,27.5,26.2,00.0,36.3,29.3,06.9,0001.8,0022.57,0012.11,0010.71
2023-02-01 23:04:00,,0826.0,4.99,0.00,27.5,26.2,00.0,36.3,29.3,06.8,0002.6,0022.81,0012.01,0010.62
2023-02-01 23:05:00,,0825.9,4.99,0.00,27.5,26.2,00.0,36.3,29.4,06.8,0002.9,0023.08,0011.96,0010.59
2023-02-01 23:06:00,,0825.8,5.01,0.00,27.5,26.2,00.0,36.3,29.4,06.8,0002.9,0022.48,0011.98,0010.60
2023-02-01 23:07:00,,0825.9,5.01,0.00,27.5,26.2,00.0,36.3,29.3,06.8,0003.0,0020.48,0011.87,0010.56
2023-02-01 23:08:00,,0825.9,5.02,0.00,27.5,26.2,00.0,36.3,29.4,06.8,0003.0,0020.06,0011.72,0010.45
2023-02-01 23:09:00,,0825.9,5.01,0.00,27.5,26.2,00.0,36.3,29.4,06.7,0002.6,0019.38,0011.52,0010.31
2023-02-01 23:10:00,,0825.9,5.00,0.00,27.6,26.2,00.0,36.3,29.4,06.7,0002.6,0018.59,0011.34,0010.17
2023-02-01 23:11:00,,0826.0,4.99,0.00,27.6,26.2,00.0,36.4,29.4,06.6,0002.8,0018.01,0011.08,0009.96
2023-02-01 23:12:00,,0826.0,4.99,0.00,27.6,26.3,00.0,36.4,29.4,06.5,0002.6,0017.62,0010.76,0009.72
2023-02-01 23:13:00,,0826.0,5.00,0.00,27.6,26.3,00.0,36.4,29.4,06.5,0002.6,0016.83,0010.57,0009.52
2023-02-01 23:14:00,,0826.0,5.00,0.00,27.6,26.3,00.0,36.4,29.4,06.5,0000.0,0016.79,0010.47,0009.44
2023-02-01 23:15:00,,0826.0,5.01,0.00,27.6,26.2,00.0,36.4,29.4,06.5,0000.0,0016.49,0010.42,0009.42
2023-02-01 23:16:00,,0826.0,5.00,0.00,27.6,26.2,00.0,36.4,29.3,06.4,0000.0,0016.42,0010.30,0009.35
2023-02-01 23:17:00,,0826.0,5.00,0.00,27.6,26.2,00.0,36.4,29.4,06.4,0000.0,0016.42,0010.19,0009.23
2023-02-01 23:18:00,,0826.0,4.99,0.00,27.6,26.2,00.0,36.4,29.4,06.4,0000.0,0016.29,0009.99,0009.05
2023-02-01 23:19:00,,0826.0,5.00,0.00,27.6,26.2,00.0,36.4,29.4,06.4,0000.0,0016.12,0009.80,0008.89
2023-02-01 23:20:00,,0826.0,5.01,0.00,27.6,26.2,00.0,36.4,29.3,06.4,0000.0,0016.31,0009.66,0008.74
2023-02-01 23:21:00,,0826.0,5.00,0.00,27.6,26.2,00.0,36.4,29.4,06.4,0000.0,0016.32,0009.50,0008.59
2023-02-01 23:22:00,,0826.0,5.00,0.00,27.6,26.2,00.0,36.4,29.4,06.5,0000.0,0016.20,0009.39,0008.47
2023-02-01 23:23:00,,0826.0,5.00,0.00,27.6,26.2,00.0,36.4,29.3,06.4,0000.0,0016.18,0009.30,0008.41
2023-02-01 23:24:00,,0826.0,5.01,0.00,27.6,26.2,00.0,36.4,29.3,06.4,0000.0,0016.12,0009.26,0008.39
2023-02-01 23:25:00,,0826.0,5.00,0.00,27.6,26.2,00.0,36.4,29.3,06.4,0000.0,0016.17,0009.17,0008.32
2023-02-01 23:26:00,,0826.0,4.98,0.00,27.6,26.2,00.0,36.4,29.3,06.3,0000.0,0016.01,0009.06,0008.23
2023-02-01 23:27:00,,0826.0,4.99,0.00,27.6,26.2,00.0,36.4,29.3,06.3,0000.0,0015.21,0009.00,0008.17
2023-02-01 23:28:00,,0826.0,5.01,0.00,27.6,26.2,00.0,36.4,29.3,06.2,0000.0,0015.00,0008.89,0008.08
2023-02-01 23:29:00,,0826.0,4.99,0.00,27.6,26.1,00.0,36.4,29.3,06.2,0000.0,0015.65,0008.82,0008.02
2023-02-01 23:30:00,,0826.1,5.01,0.00,27.6,26.1,00.0,36.4,29.3,06.3,0000.0,0015.61,0008.72,0007.95
2023-02-01 23:31:00,,0826.1,5.00,0.00,27.6,26.1,00.0,36.4,29.3,06.3,0000.0,0015.52,0008.67,0007.94
2023-02-01 23:32:00,,0826.0,5.00,0.00,27.6,26.1,00.0,36.4,29.3,06.4,0000.0,0016.15,0008.72,0007.96
2023-02-01 23:33:00,,0826.0,5.01,0.00,27.5,26.1,00.0,36.4,29.3,06.5,0000.0,0016.24,0008.73,0008.00
2023-02-01 23:34:00,,0826.0,4.99,0.00,27.5,26.1,00.0,36.4,29.3,06.6,0000.0,0016.04,0008.84,0008.07
2023-02-01 23:35:00,,0826.0,5.00,0.00,27.5,26.1,00.0,36.4,29.3,06.6,0000.0,0016.62,0008.97,0008.17
2023-02-01 23:36:00,,0826.0,5.00,0.00,27.5,26.1,00.0,36.4,29.3,06.6,0000.0,0017.14,0009.11,0008.29
2023-02-01 23:37:00,,0826.0,5.00,0.00,27.5,26.1,00.0,36.4,29.3,06.6,0000.0,0017.21,0009.27,0008.43
2023-02-01 23:38:00,,0826.0,4.99,0.00,27.5,26.1,00.0,36.4,29.3,06.6,0000.0,0017.47,0009.44,0008.58
2023-02-01 23:39:00,,0826.0,5.01,0.00,27.5,26.1,00.0,36.4,29.3,06.6,0000.0,0018.09,0009.67,0008.75
2023-02-01 23:40:00,,0826.0,5.00,0.00,27.5,26.1,00.0,36.4,29.3,06.6,0000.0,0017.69,0009.82,0008.90
2023-02-01 23:41:00,,0826.0,5.00,0.00,27.5,26.1,00.0,36.4,29.3,06.6,0000.0,0017.63,0010.02,0009.05
2023-02-01 23:42:00,,0826.1,5.01,0.00,27.5,26.1,00.0,36.4,29.3,06.6,0000.0,0017.65,0010.18,0009.18
2023-02-01 23:43:00,,0826.1,5.00,0.00,27.5,26.1,00.0,36.4,29.3,06.7,0000.0,0017.19,0010.30,0009.29
2023-02-01 23:44:00,,0826.1,5.00,0.00,27.5,26.1,00.0,36.4,29.3,06.7,0000.0,0017.45,0010.45,0009.40
2023-02-01 23:45:00,,0826.1,5.01,0.00,27.5,26.1,00.0,36.4,29.3,06.8,0000.0,0017.88,0010.52,0009.48
2023-02-01 23:46:00,,0826.1,5.00,0.00,27.5,26.0,00.0,36.3,29.3,06.8,0000.0,0018.19,0010.62,0009.55
2023-02-01 23:47:00,,0826.1,5.00,0.00,27.5,26.1,00.0,36.3,29.3,06.7,0000.0,0017.65,0010.69,0009.61
2023-02-01 23:48:00,,0826.0,4.99,0.00,27.5,26.1,00.0,36.3,29.3,06.7,0000.0,0017.86,0010.76,0009.64
2023-02-01 23:49:00,,0826.1,5.00,0.00,27.5,26.1,00.0,36.3,29.3,06.7,0000.0,0017.88,0010.81,0009.67
2023-02-01 23:50:00,,0826.0,5.00,0.00,27.5,26.1,00.0,36.3,29.3,06.7,0000.0,0017.65,0010.83,0009.69
2023-02-01 23:51:00,,0826.0,5.01,0.00,27.5,26.1,00.0,36.3,29.3,06.8,0000.0,0017.76,0010.87,0009.73
2023-02-01 23:52:00,,0826.0,5.00,0.00,27.5,26.1,00.0,36.3,29.3,06.8,0000.0,0017.94,0010.93,0009.77
2023-02-01 23:53:00,,0826.0,5.01,0.00,27.5,26.1,00.0,36.3,29.2,06.8,0000.0,0018.21,0011.01,0009.81
2023-02-01 23:54:00,,0826.0,5.01,0.00,27.5,26.0,00.0,36.3,29.3,06.8,0000.2,0018.86,0011.07,0009.85
2023-02-01 23:55:00,,0826.1,5.00,0.00,27.5,26.0,00.0,36.3,29.2,06.8,0003.1,0019.84,0011.16,0009.88
2023-02-01 23:56:00,,0826.1,5.00,0.00,27.5,26.0,00.0,36.3,29.2,06.8,0004.0,0020.10,0011.26,0009.90
2023-02-01 23:57:00,,0826.1,4.99,0.00,27.5,26.0,00.0,36.3,29.2,06.7,0003.8,0020.15,0011.20,0009.87
2023-02-01 23:58:00,,0826.2,5.00,0.00,27.5,26.0,00.0,36.3,29.2,06.7,0000.0,0020.21,0011.20,0009.86
2023-02-01 23:59:00,,0826.1,5.01,0.00,27.4,26.0,00.0,36.3,29.2,06.7,0000.0,0020.49,0011.26,0009.87
